Torna al catalogo

MIDAS 4 DEB

LostPO
NORAD 45467·DEBRIS·🇺🇸 United States

Lanciato Oct 21, 1961 da Vandenberg Space Force Base

Loading…

Prossimi Passaggi (prossime 24 ore)

TLE

ObsoletoSource: Space-Track

Epoca: Apr 19, 2025, 15:11 UTC

1 45467U 61028M   25109.63283500 -.00000113  00000-0 -32453-1 0  9992
2 45467  95.8328 190.3350 0905562 151.7473 213.5700  8.70606683304323

Traccia MIDAS 4 DEB in tempo reale con AllMySat

Download on the App Store